WY1U-1 Weather Reports


time (UTC)temp
F
wind
direction
speed
knots
gust
knots
rain 1hr
in
rain 24hr
in
rain mn
in
humidity
%
barometer
mb
20260903000152 68 112 0.9 2.6 0.00 0.01 0.00 73 1019.2
20260902230151 70 174 0.0 2.6 0.00 0.01 0.00 71 1020.2
20260902220151 71 166 0.0 2.6 0.00 0.09 0.00 70 1020.5
20260902210151 72 177 0.9 3.5 0.00 0.12 0.00 70 1019.9
20260902200151 73 114 0.9 2.6 0.00 0.12 0.00 71 1020.3
20260902191742 76 170 1.7 6.1 0.00 0.12 0.00 54 1020.8
20260902190151 75 155 0.0 2.6 0.00 0.12 0.00 56 1020.6
20260902170151 76 170 1.7 6.1 0.00 0.12 0.00 54 1020.8
20260902160151 75 111 0.9 5.2 0.00 0.12 0.00 62 1021.1
20260902123150 64 11 0.0 0.0 0.00 0.18 0.00 93 1021.2
20260902120151 63 30 0.0 1.7 0.00 0.18 0.00 94 1021.3
20260902110151 62 0 0.0 0.0 0.00 0.18 0.00 95 1021.2
20260902103150 62 0 0.0 0.0 0.00 0.20 0.00 95 1021.1
20260902100151 62 0 0.0 0.0 0.00 0.20 0.00 95 1020.8
20260902090151 62 0 0.0 0.0 0.00 0.20 0.00 95 1020.1
20260902080151 62 0 0.0 0.0 0.00 0.20 0.00 96 1019.9
20260902060152 63 0 0.0 0.0 0.00 0.21 0.00 96 1019.6
20260902050151 63 79 0.0 1.7 0.00 0.21 0.00 96 1019.5
20260902040151 63 0 0.0 0.0 0.00 0.21 0.00 96 1019.3
20260902020151 63 0 0.0 0.0 0.01 0.21 0.21 95 1018.5
20260902010151 63 0 0.0 0.0 0.00 0.19 0.19 95 1018.0